Location: Blue Sky Observatory
(43.1153°N, 70.9036°W)
Time: 12:58:28
(UTC-04:00)

Amateur Radio Satellites - All Passes

Search period start: 23 July 2016 12:28
Search period end: 24 July 2016 12:28
Location: Blue Sky Observatory, 43.1153°N, 70.9036°W

Satellite Date Start Highest point End Downlink Frequencies (MHz)
Time Altitude Azimuth
AUBIESAT-1 23 Jul 12:31:35 12:34:04 15° 304° (NW) 12:36:35 437.475
Cosmos 2504 23 Jul 12:41:09 12:49:31 46° 287° (WNW) 12:57:58 435.465 / 435.565
Gurwin Techsat 1B 23 Jul 12:41:28 12:45:18 21° 62° (ENE) 12:49:08 435.225
SPROUT 23 Jul 12:41:36 12:45:44 42° 98° (E) 12:49:49 437.525
NANOSAT C BR1 23 Jul 12:46:48 12:48:58 14° 269° (W) 12:51:09 145.865
DUCHIFAT 1 23 Jul 12:53:44 12:55:31 12° 270° (W) 12:57:17 145.980
JAS-2 23 Jul 12:55:07 13:01:14 50° 260° (W) 13:06:43 435.910
AISAT 23 Jul 12:57:42 13:02:05 60° 287° (WNW) 13:06:28 437.250
DX 1 23 Jul 13:13:12 13:17:30 58° 287° (WNW) 13:21:47 434.975-435.025
ESTCUBE 1 23 Jul 13:14:48 13:18:31 26° 293° (WNW) 13:22:14 437.505/2401.250
ITAMSAT 1 23 Jul 13:22:13 13:25:28 17° 60° (ENE) 13:28:43 435.822/435.867
AIST 1 23 Jul 13:22:57 13:26:39 29° 90° (E) 13:30:21
BUGSAT 1 23 Jul 13:27:21 13:28:33 11° 271° (W) 13:29:47 437.445
Oscar 19 23 Jul 13:34:33 13:39:38 66° 258° (WSW) 13:44:45 437.125/150
UKube-1 23 Jul 13:35:29 13:39:34 42° 289° (WNW) 13:43:39 .
50 SAT 23 Jul 13:38:57 13:41:11 16° 294° (WNW) 13:43:25 437.505
AO-85 23 Jul 13:45:04 13:48:20 16° 109° (ESE) 13:51:32 145.980
BEESAT 23 Jul 13:48:35 13:48:52 10° 88° (E) 13:49:10 436.000
VELOX 1 23 Jul 13:50:40 13:53:50 20° 296° (WNW) 13:57:01 145.980
TISAT 1 23 Jul 13:53:11 13:57:25 61° 102° (ESE) 14:01:37 437.305
CUBEBUG 1 23 Jul 14:04:36 14:06:31 13° 299° (WNW) 14:08:25 437.445
ITUPSAT 1 23 Jul 14:06:20 14:09:18 16° 91° (E) 14:12:14 437.325
AO-7 23 Jul 14:14:40 14:22:07 38° 58° (ENE) 14:29:36 29.400- 29.500
GONETS M04 23 Jul 14:15:30 14:20:42 18° 76° (ENE) 14:25:54
SPROUT 23 Jul 14:18:18 14:21:22 19° 295° (WNW) 14:24:26 437.525
Gurwin Techsat 1B 23 Jul 14:19:34 14:24:47 58° 259° (W) 14:30:04 435.225
RS-15 23 Jul 14:33:01 14:44:15 38° 32° (NNE) 14:55:29 29.354- 29.394
ITAMSAT 1 23 Jul 14:59:08 15:04:21 71° 257° (WSW) 15:09:36 435.822/435.867
SWISSCUBE 23 Jul 15:00:36 15:05:21 64° 102° (ESE) 15:10:03 437.505
AIST 1 23 Jul 15:00:51 15:04:15 23° 288° (WNW) 15:07:40
CUSAT 1 23 Jul 15:07:02 15:09:44 55° 79° (E) 15:12:54 437.405
BEESAT 23 Jul 15:22:29 15:27:17 87° 288° (WNW) 15:32:03 436.000
AO-85 23 Jul 15:22:54 15:28:18 77° 305° (NW) 15:33:28 145.980
HORYU 2 23 Jul 15:27:11 15:29:21 14° 61° (ENE) 15:31:33 437.375
TISAT 1 23 Jul 15:30:25 15:32:34 14° 298° (WNW) 15:34:42 437.305
ITUPSAT 1 23 Jul 15:42:49 15:47:30 56° 288° (WNW) 15:52:08 437.325
Cosmos 2499 23 Jul 15:52:57 16:01:33 56° 90° (E) 16:10:02 435.465 / 435.565
STARS 23 Jul 15:54:08 15:55:53 12° 90° (E) 15:57:37 437.465
AO-7 23 Jul 16:06:27 16:14:35 55° 258° (WSW) 16:22:48 29.400- 29.500
GONETS M04 23 Jul 16:07:27 16:16:09 87° 95° (E) 16:24:55
DANDE 23 Jul 16:32:06 16:34:21 26° 265° (W) 16:36:38 436.750
KKS-1 23 Jul 16:37:51 16:42:20 71° 102° (ESE) 16:46:49 437.445
SWISSCUBE 23 Jul 16:39:47 16:42:38 16° 299° (WNW) 16:45:29 437.505
SO-50 23 Jul 16:40:08 16:43:46 22° 40° (NE) 16:47:18 436.795
MOZHAYETS 4 23 Jul 16:41:18 16:45:55 83° 102° (ESE) 16:50:29
NOAA 15 23 Jul 16:42:35 16:46:22 21° 62° (ENE) 16:50:09 137.62
RS-15 23 Jul 16:45:58 16:58:23 86° 239° (WSW) 17:10:38 29.354- 29.394
HORYU 2 23 Jul 17:00:53 17:05:21 70° 258° (WSW) 17:09:51 437.375
BEESAT 23 Jul 17:02:56 17:04:18 11° 302° (WNW) 17:05:41 436.000
AO-85 23 Jul 17:06:13 17:09:34 17° 323° (NW) 17:12:49 145.980
GOMX 1 23 Jul 17:13:33 17:16:00 15° 63° (ENE) 17:18:31 467.674
Cubesat XI-IV 23 Jul 17:21:56 17:26:43 34° 66° (ENE) 17:31:31 437.490
BRITE-PL 23 Jul 17:26:06 17:30:06 45° 72° (ENE) 17:34:05 437.365/2234.400
STARS 23 Jul 17:28:15 17:32:41 67° 287° (WNW) 17:37:05 437.465
DOVE 4 23 Jul 17:29:27 17:30:28 11° 59° (ENE) 17:31:28 437.250
LilacSat-2 23 Jul 17:40:52 17:44:27 37° 71° (ENE) 17:48:05 437.200
CUTE-I 23 Jul 17:46:25 17:51:39 55° 71° (ENE) 17:56:54 437.470
NOAA 18 23 Jul 17:46:52 17:52:16 58° 70° (ENE) 17:57:43 137.9125
Cosmos 2499 23 Jul 17:47:01 17:55:00 36° 290° (WNW) 18:02:54 435.465 / 435.565
CUBESAT XI-V 23 Jul 17:49:11 17:53:42 52° 100° (E) 17:58:11 437.345
GONETS M04 23 Jul 18:07:57 18:14:12 21° 299° (WNW) 18:20:30
PHONESAT 2.4 23 Jul 18:11:35 18:12:45 12° 150° (SSE) 18:13:54 2401.200-2431.200
KKS-1 23 Jul 18:16:13 18:18:20 13° 299° (WNW) 18:20:27 437.445
HO-68 23 Jul 18:16:33 18:21:54 23° 56° (NE) 18:27:15 435.675
SO-50 23 Jul 18:20:03 18:24:38 59° 240° (WSW) 18:29:02 436.795
NOAA 15 23 Jul 18:20:34 18:25:43 57° 259° (WSW) 18:30:54 137.62
MOZHAYETS 4 23 Jul 18:20:47 18:22:24 12° 300° (WNW) 18:24:01
GOMX 1 23 Jul 18:49:42 18:53:42 48° 261° (W) 18:57:50 467.674
RS-15 23 Jul 19:00:14 19:09:07 24° 261° (W) 19:17:56 29.354- 29.394
CANX-2 23 Jul 19:00:33 19:04:05 26° 68° (ENE) 19:07:37 2200.000
Cubesat XI-IV 23 Jul 19:01:53 19:06:44 34° 264° (W) 19:11:37 437.490
DOVE 4 23 Jul 19:03:13 19:07:26 81° 257° (WSW) 19:11:52 437.250
BRITE-PL 23 Jul 19:06:34 19:08:54 15° 269° (W) 19:11:14 437.365/2234.400
CUTE 1.7 + AOD 2 23 Jul 19:14:31 19:18:18 31° 69° (ENE) 19:22:05 437.475
STRAND 1 23 Jul 19:15:49 19:20:06 26° 95° (E) 19:24:19 437.568
LilacSat-2 23 Jul 19:16:26 19:18:54 16° 268° (W) 19:21:24 437.200
AAUSAT CUBESAT 2 23 Jul 19:19:36 19:21:54 15° 64° (ENE) 19:24:13 437.432
CUBESAT XI-V 23 Jul 19:27:38 19:30:40 18° 297° (WNW) 19:33:43 437.345
CUTE-I 23 Jul 19:28:06 19:32:01 20° 268° (W) 19:35:58 437.470
NOAA 18 23 Jul 19:29:18 19:33:18 20° 268° (W) 19:37:20 137.9125
UWE-3 23 Jul 19:31:43 19:34:05 14° 61° (ENE) 19:36:30 435.000/436.395/437.385
PCSat 23 Jul 19:33:08 19:37:42 29° 109° (ESE) 19:42:18 145.827
ZACube-1 23 Jul 19:42:26 19:44:08 12° 60° (ENE) 19:45:50 437.345
CUBEBUG 2 23 Jul 19:43:25 19:47:10 26° 66° (ENE) 19:51:01 437.445
FUNcube-1 23 Jul 19:44:00 19:45:32 12° 60° (ENE) 19:47:05 145.935
CINEMA 3 23 Jul 19:44:31 19:48:56 80° 76° (ENE) 19:53:37 145.822/145.860
PHONESAT 2.4 23 Jul 19:45:52 19:48:44 35° 166° (SSE) 19:51:36 2401.200-2431.200
BEESAT 2 23 Jul 19:52:22 19:56:09 47° 118° (ESE) 20:00:00 435.950
BEESAT 3 23 Jul 19:54:24 19:58:20 86° 307° (NW) 20:02:18 437.485
SEEDS 23 Jul 20:00:47 20:05:00 71° 76° (ENE) 20:09:14 437.485
HO-68 23 Jul 20:01:41 20:08:52 78° 255° (WSW) 20:16:07 435.675
AUBIESAT-1 23 Jul 20:11:32 20:12:40 11° 53° (NE) 20:13:47 437.475
YUBILEINY 23 Jul 20:13:24 20:21:16 34° 68° (ENE) 20:29:02 435.215
DELFI C3 23 Jul 20:18:17 20:19:06 11° 62° (ENE) 20:19:55 145.870
COMPASS 1 23 Jul 20:20:17 20:24:28 82° 79° (ENE) 20:28:41 437.405
Oscar 11 23 Jul 20:29:29 20:33:24 34° 70° (ENE) 20:37:21 145.826/435.025
CANX-2 23 Jul 20:36:04 20:39:50 29° 264° (W) 20:43:36 2200.000
Cosmos 2504 23 Jul 20:41:17 20:46:05 16° 57° (ENE) 20:50:42 435.465 / 435.565
O/OREOS (USA 219) 23 Jul 20:45:32 20:49:10 25° 103° (ESE) 20:52:48 437.305
CUTE 1.7 + AOD 2 23 Jul 20:50:40 20:54:08 24° 266° (W) 20:57:39 437.475
AAUSAT CUBESAT 2 23 Jul 20:52:53 20:56:57 53° 260° (W) 21:01:03 437.432
STRAND 1 23 Jul 20:54:37 20:59:22 39° 292° (WNW) 21:04:05 437.568
PRISM 23 Jul 20:57:26 21:01:11 34° 98° (E) 21:04:56 437.425
UWE-3 23 Jul 21:05:26 21:09:56 69° 259° (WSW) 21:14:35 435.000/436.395/437.385
M-CUBED/EXP-1 PRIME 23 Jul 21:13:10 21:16:47 60° 68° (ENE) 21:20:43 437.505
ZACube-1 23 Jul 21:15:13 21:19:43 82° 258° (WSW) 21:24:19 437.345
PCSat 23 Jul 21:15:43 21:20:53 44° 307° (NW) 21:26:06 145.827
FUNcube-1 23 Jul 21:16:34 21:21:04 84° 255° (WSW) 21:25:40 145.935
CUBEBUG 2 23 Jul 21:19:30 21:23:37 34° 264° (W) 21:27:53 437.445
AIST 2 23 Jul 21:19:53 21:22:55 20° 112° (ESE) 21:25:57 435.215
PHONESAT 2.4 23 Jul 21:22:01 21:25:01 51° 183° (S) 21:28:02 2401.200-2431.200
CINEMA 3 23 Jul 21:26:37 21:26:46 10° 274° (W) 21:26:54 145.822/145.860
HUMSAT D 23 Jul 21:29:51 21:33:42 33° 70° (ENE) 21:37:35 437.325/437.525
BEESAT 2 23 Jul 21:31:15 21:34:14 20° 317° (NW) 21:37:14 435.950
BEESAT 3 23 Jul 21:34:52 21:36:38 13° 323° (NW) 21:38:24 437.485
Cosmos 2491 23 Jul 21:35:33 21:43:49 50° 89° (E) 21:52:05 435.465 / 435.565
SEEDS 23 Jul 21:40:33 21:41:10 10° 272° (W) 21:41:46 437.485
AUBIESAT-1 23 Jul 21:42:45 21:46:26 74° 253° (WSW) 21:50:28 437.475
DELFI C3 23 Jul 21:49:24 21:53:23 71° 259° (W) 21:57:22 145.870
HO-68 23 Jul 21:54:24 21:57:41 13° 273° (W) 22:00:58 435.675
Oscar 11 23 Jul 22:06:08 22:09:36 23° 266° (W) 22:13:04 145.826/435.025
YUBILEINY 23 Jul 22:09:53 22:18:29 57° 270° (W) 22:27:01 435.215
TIGRISAT 23 Jul 22:12:12 22:15:40 20° 92° (E) 22:19:05 435.000
AO-85 23 Jul 22:14:50 22:18:01 18° 38° (NE) 22:21:01 145.980
AISAT 23 Jul 22:21:39 22:24:03 15° 62° (ENE) 22:26:29 437.250
O/OREOS (USA 219) 23 Jul 22:24:21 22:28:24 33° 301° (WNW) 22:32:29 437.305
UNISAT 6 23 Jul 22:26:44 22:30:51 30° 95° (E) 22:34:53 437.425
Cosmos 2504 23 Jul 22:32:46 22:41:09 77° 81° (E) 22:48:52 435.465 / 435.565
PRISM 23 Jul 22:33:14 22:36:17 21° 294° (WNW) 22:39:20 437.425
ISS 23 Jul 22:33:48 22:36:48 35° 139° (SE) 22:39:49 145.825
DX 1 23 Jul 22:35:33 22:37:54 14° 62° (ENE) 22:40:15 434.975-435.025
ESTCUBE 1 23 Jul 22:38:11 22:42:12 33° 69° (ENE) 22:46:15 437.505/2401.250
50 SAT 23 Jul 22:43:29 22:46:11 20° 67° (ENE) 22:48:53 437.505
M-CUBED/EXP-1 PRIME 23 Jul 22:51:20 22:51:50 10° 267° (W) 22:52:21 437.505
UKube-1 23 Jul 22:56:03 22:59:02 19° 64° (ENE) 23:02:01 .
AIST 2 23 Jul 22:57:12 23:01:07 42° 310° (NW) 23:05:04 435.215
PHONESAT 2.4 23 Jul 22:58:36 23:01:16 27° 199° (SSW) 23:03:56 2401.200-2431.200
PCSat 23 Jul 23:04:35 23:05:46 11° 330° (NNW) 23:06:57 145.827
ANTELSAT 23 Jul 23:05:01 23:09:43 75° 102° (ESE) 23:14:17 437.575/2403.000
HUMSAT D 23 Jul 23:05:55 23:09:22 23° 266° (W) 23:12:50 437.325/437.525
VELOX 1 23 Jul 23:11:32 23:15:41 43° 71° (ENE) 23:19:51 145.980
QB50P1 23 Jul 23:13:35 23:15:57 14° 91° (E) 23:18:18 145.935-145.965
POPSAT HIP 1 23 Jul 23:19:20 23:22:05 16° 92° (E) 23:24:49 437.405
CUBEBUG 1 23 Jul 23:23:03 23:27:18 65° 74° (ENE) 23:31:36 437.445
Cosmos 2491 23 Jul 23:32:55 23:40:51 38° 290° (WNW) 23:48:49 435.465 / 435.565
SPROUT 23 Jul 23:36:00 23:39:53 36° 70° (ENE) 23:43:50 437.525
QB50P2 23 Jul 23:38:27 23:42:12 28° 96° (E) 23:45:54 145.880/145.840
POLYITAN 1 23 Jul 23:41:05 23:44:52 29° 96° (E) 23:48:35 437.675
TIGRISAT 23 Jul 23:48:07 23:52:33 43° 289° (WNW) 23:56:52 435.000
AO-85 23 Jul 23:54:36 23:59:00 66° 239° (WSW) 00:03:01 145.980
AISAT 23 Jul 23:55:43 00:00:02 60° 259° (WSW) 00:04:24 437.250
UNISAT 6 24 Jul 00:03:27 00:07:29 29° 293° (WNW) 00:11:27 437.425
JAS-2 24 Jul 00:03:42 00:07:00 16° 92° (E) 00:10:23 435.910
DX 1 24 Jul 00:09:20 00:13:36 59° 259° (W) 00:17:54 434.975-435.025
ISS 24 Jul 00:10:11 00:13:14 35° 337° (NNW) 00:16:17 145.825
ESTCUBE 1 24 Jul 00:15:21 00:19:03 25° 265° (W) 00:22:45 437.505/2401.250
50 SAT 24 Jul 00:16:25 00:19:39 28° 263° (W) 00:22:53 437.505
NANOSAT C BR1 24 Jul 00:27:37 00:31:55 88° 92° (E) 00:36:12 145.865
Cosmos 2504 24 Jul 00:27:41 00:33:27 22° 282° (WNW) 00:38:57 435.465 / 435.565
UKube-1 24 Jul 00:30:39 00:34:45 43° 261° (W) 00:38:53 .
DUCHIFAT 1 24 Jul 00:33:52 00:38:09 84° 284° (WNW) 00:42:25 145.980
SWISSCUBE 24 Jul 00:34:34 00:35:33 11° 57° (ENE) 00:36:32 437.505
ANTELSAT 24 Jul 00:43:32 00:45:46 13° 300° (WNW) 00:47:59 437.575/2403.000
TISAT 1 24 Jul 00:45:31 00:49:33 50° 72° (ENE) 00:53:39 437.305
QB50P1 24 Jul 00:47:51 00:52:02 52° 287° (WNW) 00:56:11 145.935-145.965
VELOX 1 24 Jul 00:49:20 00:52:20 18° 267° (W) 00:55:23 145.980
POPSAT HIP 1 24 Jul 00:53:59 00:58:06 46° 288° (WNW) 01:02:12 437.405
BEESAT 24 Jul 00:54:26 00:57:10 15° 61° (ENE) 00:59:53 436.000
CUBEBUG 1 24 Jul 01:02:29 01:04:02 12° 271° (W) 01:05:35 437.445
BUGSAT 1 24 Jul 01:04:35 01:08:51 86° 284° (WNW) 01:13:07 437.445
AIST 1 24 Jul 01:05:30 01:09:51 88° 263° (W) 01:14:12
SPROUT 24 Jul 01:12:43 01:15:56 21° 267° (W) 01:19:12 437.525
ITUPSAT 1 24 Jul 01:13:48 01:17:29 23° 64° (ENE) 01:21:12 437.325
QB50P2 24 Jul 01:14:18 01:17:55 27° 292° (WNW) 01:21:31 145.880/145.840
POLYITAN 1 24 Jul 01:16:58 01:20:34 26° 293° (WNW) 01:24:09 437.675
Cosmos 2499 24 Jul 01:44:58 01:50:31 20° 61° (ENE) 01:55:46 435.465 / 435.565
Oscar 19 24 Jul 01:45:06 01:49:58 40° 98° (E) 01:54:48 437.125/150
JAS-2 24 Jul 01:47:22 01:52:31 62° 288° (WNW) 01:57:59 435.910
ISS 24 Jul 01:47:58 01:50:20 18° 357° (N) 01:52:42 145.825
SWISSCUBE 24 Jul 02:07:44 02:12:32 82° 76° (ENE) 02:17:21 437.505
MOZHAYETS 4 24 Jul 02:11:01 02:11:56 11° 59° (ENE) 02:12:51
GONETS M04 24 Jul 02:16:36 02:25:00 46° 73° (ENE) 02:33:22
TISAT 1 24 Jul 02:23:11 02:25:30 14° 269° (W) 02:27:50 437.305
BEESAT 24 Jul 02:29:37 02:34:23 68° 258° (WSW) 02:39:11 436.000
Gurwin Techsat 1B 24 Jul 02:34:40 02:39:53 52° 100° (E) 02:45:03 435.225
BEESAT 3 24 Jul 02:34:57 02:36:18 11° 36° (NE) 02:37:39 437.485
ITUPSAT 1 24 Jul 02:50:28 02:55:03 43° 261° (W) 02:59:39 437.325
STARS 24 Jul 02:51:57 02:54:02 13° 61° (ENE) 02:56:09 437.465
ITAMSAT 1 24 Jul 03:11:11 03:16:01 37° 97° (E) 03:20:48 435.822/435.867
ISS 24 Jul 03:24:45 03:27:33 25° 17° (NNE) 03:30:20 145.825
Oscar 19 24 Jul 03:24:49 03:29:05 27° 295° (WNW) 03:33:23 437.125/150
KKS-1 24 Jul 03:36:32 03:40:57 73° 74° (ENE) 03:45:24 437.445
Cosmos 2499 24 Jul 03:36:48 03:44:52 85° 265° (W) 03:52:16 435.465 / 435.565
MOZHAYETS 4 24 Jul 03:43:41 03:48:20 86° 77° (ENE) 03:53:00
SWISSCUBE 24 Jul 03:49:33 03:50:55 11° 271° (W) 03:52:16 437.505
DANDE 24 Jul 03:58:08 04:02:46 24° 94° (E) 04:06:34 436.750
AO-7 24 Jul 04:06:42 04:14:46 50° 101° (E) 04:22:45 29.400- 29.500
BEESAT 2 24 Jul 04:09:24 04:13:12 39° 50° (NE) 04:16:58 435.950
BEESAT 3 24 Jul 04:10:43 04:14:42 74° 56° (NE) 04:18:39 437.485
CUSAT 1 24 Jul 04:10:44 04:15:20 68° 99° (E) 04:18:51 437.405
GONETS M04 24 Jul 04:13:41 04:21:41 41° 274° (W) 04:29:43
Gurwin Techsat 1B 24 Jul 04:15:25 04:19:28 23° 297° (WNW) 04:23:30 435.225
PCSat 24 Jul 04:19:18 04:24:07 31° 48° (NE) 04:28:55 145.827
STARS 24 Jul 04:25:29 04:29:50 68° 258° (WSW) 04:34:15 437.465
ITAMSAT 1 24 Jul 04:50:55 04:55:21 29° 295° (WNW) 04:59:45 435.822/435.867
HORYU 2 24 Jul 04:51:34 04:54:56 20° 93° (E) 04:58:16 437.375
CUBESAT XI-V 24 Jul 04:53:10 04:57:41 56° 73° (ENE) 05:02:13 437.345
ISS 24 Jul 05:00:59 05:04:14 73° 216° (SW) 05:07:28 145.825
RS-15 24 Jul 05:08:53 05:11:14 11° 91° (E) 05:13:37 29.354- 29.394
KKS-1 24 Jul 05:16:47 05:18:01 11° 271° (W) 05:19:16 437.445
BRITE-PL 24 Jul 05:29:43 05:32:30 15° 92° (E) 05:35:23 437.365/2234.400
Cosmos 2499 24 Jul 05:32:24 05:36:31 15° 285° (WNW) 05:40:31 435.465 / 435.565
AIST 2 24 Jul 05:39:30 05:42:46 22° 43° (NE) 05:46:02 435.215
DANDE 24 Jul 05:39:47 05:45:28 42° 282° (WNW) 05:49:49 436.750
Cubesat XI-IV 24 Jul 05:40:19 05:41:59 11° 87° (E) 05:43:39 437.490
BEESAT 2 24 Jul 05:47:49 05:50:46 20° 248° (WSW) 05:53:43 435.950
BEESAT 3 24 Jul 05:51:10 05:51:46 10° 252° (WSW) 05:52:23 437.485
AO-7 24 Jul 05:59:45 06:07:22 41° 301° (WNW) 06:14:58 29.400- 29.500
PCSat 24 Jul 06:02:32 06:07:39 43° 247° (WSW) 06:12:45 145.827
CUTE-I 24 Jul 06:03:21 06:07:13 20° 92° (E) 06:11:02 437.470
NOAA 18 24 Jul 06:08:39 06:12:56 22° 93° (E) 06:17:09 137.9125
HORYU 2 24 Jul 06:27:26 06:31:38 40° 290° (WNW) 06:35:48 437.375
STRAND 1 24 Jul 06:32:23 06:37:12 42° 69° (ENE) 06:42:02 437.568
CUBESAT XI-V 24 Jul 06:32:44 06:35:26 15° 270° (W) 06:38:08 437.345
NOAA 15 24 Jul 06:34:33 06:39:39 50° 100° (E) 06:44:45 137.62
LilacSat-2 24 Jul 06:47:12 06:51:00 49° 100° (E) 06:54:45 437.200
GOMX 1 24 Jul 06:49:05 06:53:50 44° 99° (E) 06:58:49 467.674
O/OREOS (USA 219) 24 Jul 06:53:30 06:57:59 57° 64° (ENE) 07:02:27 437.305
DOVE 4 24 Jul 07:00:33 07:04:56 28° 95° (E) 07:09:25 437.250
BRITE-PL 24 Jul 07:06:40 07:11:17 62° 286° (WNW) 07:16:15 437.365/2234.400
RS-15 24 Jul 07:09:39 07:20:40 58° 113° (ESE) 07:32:18 29.354- 29.394
Cubesat XI-IV 24 Jul 07:17:23 07:22:48 89° 105° (ESE) 07:28:08 437.490
AIST 2 24 Jul 07:17:28 07:21:28 46° 242° (WSW) 07:25:28 435.215
HO-68 24 Jul 07:29:42 07:34:37 19° 90° (E) 07:39:31 435.675
CINEMA 3 24 Jul 07:38:43 07:42:28 21° 91° (E) 07:46:11 145.822/145.860
CUTE-I 24 Jul 07:42:23 07:47:36 55° 289° (WNW) 07:52:48 437.470
Cosmos 2491 24 Jul 07:44:47 07:51:51 26° 65° (ENE) 07:58:52 435.465 / 435.565
SEEDS 24 Jul 07:46:17 07:47:16 11° 89° (E) 07:48:16 437.485
PRISM 24 Jul 07:47:51 07:51:23 29° 68° (ENE) 07:54:54 437.425
NOAA 18 24 Jul 07:48:29 07:53:53 53° 290° (WNW) 07:59:13 137.9125
AO-7 24 Jul 07:57:06 07:57:52 10° 323° (NW) 07:58:37 29.400- 29.500
COMPASS 1 24 Jul 08:04:09 08:05:46 12° 90° (E) 08:07:22 437.405
STRAND 1 24 Jul 08:12:18 08:16:30 25° 266° (W) 08:20:44 437.568
NOAA 15 24 Jul 08:15:03 08:19:07 23° 297° (WNW) 08:23:10 137.62
CANX-2 24 Jul 08:19:34 08:23:36 42° 98° (E) 08:27:35 2200.000
LilacSat-2 24 Jul 08:22:55 08:24:53 14° 296° (WNW) 08:26:49 437.200
GOMX 1 24 Jul 08:27:46 08:31:41 24° 293° (WNW) 08:35:46 467.674
CUTE 1.7 + AOD 2 24 Jul 08:33:37 08:37:46 53° 100° (E) 08:41:52 437.475
O/OREOS (USA 219) 24 Jul 08:34:24 08:36:53 15° 261° (W) 08:39:21 437.305
AAUSAT CUBESAT 2 24 Jul 08:34:43 08:37:52 21° 94° (E) 08:41:01 437.432
SO-50 24 Jul 08:34:46 08:39:12 36° 116° (ESE) 08:43:39 436.795
DOVE 4 24 Jul 08:38:00 08:42:38 38° 290° (WNW) 08:47:26 437.250
UWE-3 24 Jul 08:54:46 08:58:30 24° 93° (E) 09:02:10 435.000/436.395/437.385
Cubesat XI-IV 24 Jul 08:59:26 09:02:05 14° 303° (WNW) 09:04:44 437.490
ZACube-1 24 Jul 09:03:39 09:06:52 19° 92° (E) 09:10:02 437.345
FUNcube-1 24 Jul 09:04:46 09:07:53 18° 91° (E) 09:10:56 145.935
CUBEBUG 2 24 Jul 09:08:53 09:13:30 48° 98° (E) 09:18:00 437.445
TIGRISAT 24 Jul 09:11:46 09:15:13 21° 64° (ENE) 09:18:43 435.000
CINEMA 3 24 Jul 09:14:59 09:19:49 49° 288° (WNW) 09:24:39 145.822/145.860
HO-68 24 Jul 09:15:52 09:23:05 81° 289° (WNW) 09:30:17 435.675
YUBILEINY 24 Jul 09:15:56 09:23:39 37° 85° (E) 09:31:25 435.215
SEEDS 24 Jul 09:19:17 09:23:25 66° 286° (WNW) 09:27:33 437.485
RS-15 24 Jul 09:22:14 09:33:27 51° 318° (NW) 09:45:17 29.354- 29.394
PRISM 24 Jul 09:23:22 09:26:41 24° 265° (W) 09:29:59 437.425
Cosmos 2504 24 Jul 09:24:03 09:27:17 12° 72° (ENE) 09:30:31 435.465 / 435.565
UNISAT 6 24 Jul 09:26:16 09:30:17 30° 68° (ENE) 09:34:22 437.425
DELFI C3 24 Jul 09:27:34 09:29:30 13° 91° (E) 09:31:25 145.870
COMPASS 1 24 Jul 09:37:38 09:41:42 58° 286° (WNW) 09:45:45 437.405
Cosmos 2491 24 Jul 09:40:49 09:49:32 73° 266° (W) 09:58:14 435.465 / 435.565
Oscar 11 24 Jul 09:51:12 09:55:29 60° 100° (E) 09:59:44 145.826/435.025
CANX-2 24 Jul 09:56:15 09:59:08 18° 295° (WNW) 10:02:00 2200.000
ANTELSAT 24 Jul 10:04:12 10:08:47 72° 74° (ENE) 10:13:29 437.575/2403.000
QB50P1 24 Jul 10:07:40 10:09:42 13° 62° (ENE) 10:11:44 145.935-145.965
AAUSAT CUBESAT 2 24 Jul 10:09:44 10:13:25 32° 290° (WNW) 10:17:05 437.432
CUTE 1.7 + AOD 2 24 Jul 10:10:46 10:13:11 15° 297° (WNW) 10:15:35 437.475
POPSAT HIP 1 24 Jul 10:13:21 10:15:45 15° 63° (ENE) 10:18:11 437.405
SO-50 24 Jul 10:15:17 10:19:43 34° 314° (NW) 10:24:08 436.795
M-CUBED/EXP-1 PRIME 24 Jul 10:25:07 10:29:35 43° 104° (ESE) 10:34:04 437.505
UWE-3 24 Jul 10:30:46 10:35:03 36° 290° (WNW) 10:39:13 435.000/436.395/437.385
QB50P2 24 Jul 10:32:10 10:35:36 25° 67° (ENE) 10:39:05 145.880/145.840
POLYITAN 1 24 Jul 10:34:45 10:38:14 25° 67° (ENE) 10:41:46 437.675
ZACube-1 24 Jul 10:39:03 10:43:22 43° 289° (WNW) 10:47:35 437.345
FUNcube-1 24 Jul 10:40:02 10:44:21 45° 289° (WNW) 10:48:35 145.935
CUBEBUG 2 24 Jul 10:46:19 10:49:44 20° 296° (WNW) 10:53:07 437.445
TIGRISAT 24 Jul 10:47:13 10:51:35 44° 262° (W) 10:56:05 435.000
HUMSAT D 24 Jul 10:47:25 10:51:33 52° 99° (E) 10:55:37 437.325/437.525
AUBIESAT-1 24 Jul 10:54:09 10:58:46 71° 106° (ESE) 11:03:24 437.475
DELFI C3 24 Jul 11:00:49 11:04:38 47° 287° (WNW) 11:08:24 145.870
UNISAT 6 24 Jul 11:02:57 11:06:57 29° 265° (W) 11:11:02 437.425
HO-68 24 Jul 11:05:18 11:09:44 18° 308° (NW) 11:14:10 435.675
Cosmos 2504 24 Jul 11:10:11 11:18:52 65° 92° (E) 11:27:36 435.465 / 435.565
YUBILEINY 24 Jul 11:11:38 11:20:07 52° 285° (WNW) 11:28:43 435.215
CUBEBUG 1 24 Jul 11:12:55 11:14:14 11° 89° (E) 11:15:34 437.445
NANOSAT C BR1 24 Jul 11:20:17 11:24:30 73° 74° (ENE) 11:28:45 145.865
DUCHIFAT 1 24 Jul 11:26:15 11:30:27 79° 75° (ENE) 11:34:43 145.980
Oscar 11 24 Jul 11:28:52 11:31:08 14° 298° (WNW) 11:33:23 145.826/435.025
RS-15 24 Jul 11:40:08 11:49:50 27° 351° (N) 11:59:47 29.354- 29.394
QB50P1 24 Jul 11:40:45 11:44:57 63° 258° (WSW) 11:49:12 145.935-145.965
Cosmos 2491 24 Jul 11:40:49 11:44:42 14° 287° (WNW) 11:48:36 435.465 / 435.565
ANTELSAT 24 Jul 11:44:11 11:46:01 12° 272° (W) 11:47:51 437.575/2403.000
50 SAT 24 Jul 11:44:16 11:46:57 19° 94° (E) 11:49:37 437.505
AISAT 24 Jul 11:45:17 11:48:52 23° 95° (E) 11:52:27 437.250
POPSAT HIP 1 24 Jul 11:46:56 11:51:06 55° 260° (W) 11:55:18 437.405
BUGSAT 1 24 Jul 11:54:56 11:58:59 73° 74° (ENE) 12:03:06 437.445
DX 1 24 Jul 11:57:03 12:00:25 21° 94° (E) 12:03:45 434.975-435.025
JAS-2 24 Jul 12:00:04 12:06:10 62° 72° (ENE) 12:11:38 435.910
M-CUBED/EXP-1 PRIME 24 Jul 12:00:08 12:03:49 24° 299° (WNW) 12:07:34 437.505
ESTCUBE 1 24 Jul 12:05:44 12:10:12 63° 101° (ESE) 12:14:38 437.505/2401.250
QB50P2 24 Jul 12:07:31 12:11:17 30° 264° (W) 12:15:05 145.880/145.840
POLYITAN 1 24 Jul 12:10:11 12:13:55 30° 264° (W) 12:17:43 437.675
UKube-1 24 Jul 12:16:50 12:20:32 27° 96° (E) 12:24:13 .
Gurwin Techsat 1B 24 Jul 12:20:20 12:22:49 13° 57° (ENE) 12:25:20 435.225
